カタログに戻る

DMSP 5D-2 F11 DEB

運用中SSO
NORAD 28343·DEBRIS·🇺🇸 United States

打ち上げ Nov 28, 1991 から Vandenberg Space Force Base

Loading…

次のパス (今後24時間)

TLE

最新Source: Space-Track

元期: Sep 13, 2026, 12:35 UTC

1 28343U 91082BG  26256.52471717  .00003650  00000-0  11780-2 0  9998
2 28343  98.8867 353.5769 0058141 291.5763  67.9234 14.38848451148413

AllMySatでDMSP 5D-2 F11 DEBをリアルタイム追跡

Download on the App Store